Time,TemperatureF,DewpointF,PressureIn,WindDirection,WindDirectionDegrees,WindSpeedMPH,WindSpeedGustMPH,Humidity,HourlyPrecipIn,Conditions,Clouds,dailyrainin,SoftwareType,DateUTC
2013-01-19 00:04:00,39.0,27.0,30.01,SW,234,9.0,21.0,62,0.00,,,0.00,,2013-01-19 05:04:00,
2013-01-19 00:12:00,39.0,27.0,30.01,SW,234,9.0,21.0,62,0.00,,,0.00,,2013-01-19 05:12:00,
2013-01-19 00:23:00,39.0,27.0,30.01,SSW,213,12.0,18.0,63,0.00,,,0.00,,2013-01-19 05:23:00,
2013-01-19 00:33:00,39.0,27.0,30.01,SW,224,11.0,18.0,62,0.00,,,0.00,,2013-01-19 05:33:00,
2013-01-19 00:43:00,39.0,27.0,30.01,SW,224,11.0,18.0,62,0.00,,,0.00,,2013-01-19 05:43:00,
2013-01-19 00:53:00,39.0,27.0,30.01,SW,226,14.0,23.0,62,0.00,,,0.00,,2013-01-19 05:53:00,
2013-01-19 01:03:00,39.0,27.0,30.00,SW,233,11.0,21.0,62,0.00,,,0.00,,2013-01-19 06:03:00,
2013-01-19 01:12:00,39.0,27.0,30.00,SW,233,11.0,21.0,62,0.00,,,0.00,,2013-01-19 06:12:00,
2013-01-19 01:23:00,40.0,28.0,30.00,SW,218,12.0,25.0,62,0.00,,,0.00,,2013-01-19 06:23:00,
2013-01-19 01:33:00,40.0,28.0,30.00,SSW,201,12.0,25.0,62,0.00,,,0.00,,2013-01-19 06:33:00,
2013-01-19 01:43:00,40.0,28.0,30.00,SSW,201,12.0,25.0,62,0.00,,,0.00,,2013-01-19 06:43:00,
2013-01-19 01:53:00,40.0,28.0,29.99,SW,229,12.0,20.0,62,0.00,,,0.00,,2013-01-19 06:53:00,
2013-01-19 02:02:00,40.0,28.0,29.99,SSW,195,12.0,23.0,62,0.00,,,0.00,,2013-01-19 07:02:00,
2013-01-19 02:12:00,40.0,28.0,29.99,SSW,195,12.0,23.0,62,0.00,,,0.00,,2013-01-19 07:12:00,
2013-01-19 02:22:00,40.0,28.0,29.99,SSW,211,12.0,22.0,62,0.00,,,0.00,,2013-01-19 07:22:00,
2013-01-19 02:33:00,40.0,28.0,29.99,SSW,194,17.0,24.0,62,0.00,,,0.00,,2013-01-19 07:33:00,
2013-01-19 02:43:00,40.0,28.0,29.99,SSW,194,17.0,24.0,62,0.00,,,0.00,,2013-01-19 07:43:00,
2013-01-19 02:53:00,40.0,28.0,29.99,SSW,207,14.0,27.0,63,0.00,,,0.00,,2013-01-19 07:53:00,
2013-01-19 03:02:00,40.0,28.0,30.00,SW,236,12.0,25.0,63,0.00,,,0.00,,2013-01-19 08:02:00,
2013-01-19 03:12:00,40.0,28.0,30.00,SW,236,12.0,25.0,63,0.00,,,0.00,,2013-01-19 08:12:00,
2013-01-19 03:22:00,40.0,28.0,30.00,SSW,211,14.0,19.0,63,0.00,,,0.00,,2013-01-19 08:22:00,
2013-01-19 03:32:00,40.0,29.0,30.00,SW,227,13.0,20.0,64,0.00,,,0.00,,2013-01-19 08:32:00,
2013-01-19 03:43:00,40.0,29.0,30.00,SW,227,13.0,20.0,64,0.00,,,0.00,,2013-01-19 08:43:00,
2013-01-19 03:53:00,40.0,29.0,30.00,SW,223,16.0,24.0,64,0.00,,,0.00,,2013-01-19 08:53:00,
2013-01-19 04:02:00,39.0,28.0,30.00,South,182,13.0,22.0,65,0.00,,,0.00,,2013-01-19 09:02:00,
2013-01-19 04:12:00,39.0,28.0,30.00,South,182,13.0,22.0,65,0.00,,,0.00,,2013-01-19 09:12:00,
2013-01-19 04:23:00,39.0,28.0,29.99,SSW,194,10.0,26.0,65,0.00,,,0.00,,2013-01-19 09:23:00,
2013-01-19 04:33:00,39.0,29.0,29.98,SW,225,11.0,27.0,66,0.00,,,0.00,,2013-01-19 09:33:00,
2013-01-19 04:42:00,39.0,29.0,29.98,SW,225,11.0,27.0,66,0.00,,,0.00,,2013-01-19 09:42:00,
2013-01-19 04:53:00,39.0,29.0,29.98,SSW,204,12.0,22.0,66,0.00,,,0.00,,2013-01-19 09:53:00,
2013-01-19 05:02:00,39.0,29.0,29.98,SSW,207,9.0,22.0,66,0.00,,,0.00,,2013-01-19 10:02:00,
2013-01-19 05:12:00,39.0,29.0,29.98,SSW,207,9.0,22.0,66,0.00,,,0.00,,2013-01-19 10:12:00,
2013-01-19 05:23:00,39.0,29.0,29.98,SW,223,11.0,20.0,67,0.00,,,0.00,,2013-01-19 10:23:00,
2013-01-19 05:32:00,38.0,28.0,29.98,SW,225,14.0,20.0,68,0.00,,,0.00,,2013-01-19 10:32:00,
2013-01-19 05:43:00,38.0,28.0,29.98,SW,225,14.0,20.0,68,0.00,,,0.00,,2013-01-19 10:43:00,
2013-01-19 05:53:00,38.0,28.0,29.98,SW,215,11.0,19.0,68,0.00,,,0.00,,2013-01-19 10:53:00,
2013-01-19 06:03:00,38.0,29.0,29.98,SSW,212,12.0,18.0,69,0.00,,,0.00,,2013-01-19 11:03:00,
2013-01-19 06:12:00,38.0,29.0,29.98,SSW,212,12.0,18.0,69,0.00,,,0.00,,2013-01-19 11:12:00,
2013-01-19 07:48:00,38.0,30.0,29.97,SSW,202,10.0,17.0,72,0.00,,,0.00,,2013-01-19 12:48:00,
2013-01-19 07:53:00,38.0,30.0,29.97,WSW,238,9.0,18.0,72,0.00,,,0.00,,2013-01-19 12:53:00,
2013-01-19 08:03:00,38.0,30.0,29.97,WNW,302,11.0,17.0,72,0.00,,,0.00,,2013-01-19 13:03:00,
2013-01-19 08:13:00,38.0,30.0,29.97,WNW,302,11.0,17.0,72,0.00,,,0.00,,2013-01-19 13:13:00,
2013-01-19 08:22:00,38.0,30.0,29.96,SW,220,10.0,16.0,72,0.00,,,0.00,,2013-01-19 13:22:00,
2013-01-19 08:33:00,38.0,30.0,29.96,SSW,208,9.0,17.0,72,0.00,,,0.00,,2013-01-19 13:33:00,
2013-01-19 08:43:00,38.0,30.0,29.96,SSW,208,9.0,17.0,72,0.00,,,0.00,,2013-01-19 13:43:00,
2013-01-19 08:54:00,38.0,30.0,29.96,SW,232,7.0,17.0,72,0.00,,,0.00,,2013-01-19 13:54:00,
2013-01-19 09:03:00,38.0,29.0,29.96,SSW,197,10.0,19.0,71,0.00,,,0.00,,2013-01-19 14:03:00,
2013-01-19 09:12:00,38.0,29.0,29.96,SSW,197,10.0,19.0,71,0.00,,,0.00,,2013-01-19 14:12:00,
2013-01-19 09:23:00,39.0,30.0,29.96,SSW,193,10.0,17.0,70,0.00,,,0.00,,2013-01-19 14:23:00,
2013-01-19 09:34:00,40.0,30.0,29.96,WSW,237,12.0,21.0,68,0.00,,,0.00,,2013-01-19 14:34:00,
2013-01-19 09:43:00,40.0,30.0,29.96,WSW,237,12.0,21.0,68,0.00,,,0.00,,2013-01-19 14:43:00,
2013-01-19 09:53:00,40.0,30.0,29.96,SW,231,11.0,20.0,68,0.00,,,0.00,,2013-01-19 14:53:00,
2013-01-19 10:03:00,41.0,31.0,29.96,SW,229,12.0,21.0,67,0.00,,,0.00,,2013-01-19 15:03:00,
2013-01-19 10:13:00,41.0,31.0,29.96,SW,229,12.0,21.0,67,0.00,,,0.00,,2013-01-19 15:13:00,
2013-01-19 10:23:00,41.0,31.0,29.96,SSW,213,13.0,28.0,66,0.00,,,0.00,,2013-01-19 15:23:00,
2013-01-19 10:33:00,42.0,31.0,29.96,SW,217,12.0,19.0,65,0.00,,,0.00,,2013-01-19 15:33:00,
2013-01-19 10:43:00,42.0,31.0,29.96,SW,217,12.0,19.0,65,0.00,,,0.00,,2013-01-19 15:43:00,
2013-01-19 10:53:00,42.0,31.0,29.95,SW,235,10.0,24.0,64,0.00,,,0.00,,2013-01-19 15:53:00,
2013-01-19 11:03:00,43.0,31.0,29.95,West,259,13.0,28.0,63,0.00,,,0.00,,2013-01-19 16:03:00,
2013-01-19 11:13:00,43.0,31.0,29.95,West,259,13.0,28.0,63,0.00,,,0.00,,2013-01-19 16:13:00,
2013-01-19 11:23:00,43.0,31.0,29.94,SW,230,16.0,26.0,62,0.00,,,0.00,,2013-01-19 16:23:00,
2013-01-19 11:33:00,44.0,31.0,29.94,SSW,201,13.0,22.0,61,0.00,,,0.00,,2013-01-19 16:33:00,
2013-01-19 11:43:00,44.0,31.0,29.94,SSW,201,13.0,22.0,61,0.00,,,0.00,,2013-01-19 16:43:00,
2013-01-19 11:54:00,44.0,31.0,29.93,WSW,250,15.0,26.0,61,0.00,,,0.00,,2013-01-19 16:54:00,
2013-01-19 12:03:00,44.0,31.0,29.92,SSW,208,16.0,30.0,61,0.00,,,0.00,,2013-01-19 17:03:00,
2013-01-19 12:21:00,44.0,31.0,29.92,SSW,208,16.0,30.0,61,0.00,,,0.00,,2013-01-19 17:21:00,
2013-01-19 12:29:00,45.0,32.0,29.91,South,179,19.0,28.0,60,0.00,,,0.00,,2013-01-19 17:29:00,
2013-01-19 12:35:00,45.0,32.0,29.90,WSW,244,14.0,20.0,60,0.00,,,0.00,,2013-01-19 17:35:00,
2013-01-19 12:48:00,45.0,32.0,29.90,WSW,244,14.0,20.0,60,0.00,,,0.00,,2013-01-19 17:48:00,
2013-01-19 12:55:00,46.0,32.0,29.88,WSW,240,12.0,27.0,59,0.00,,,0.00,,2013-01-19 17:55:00,
2013-01-19 13:12:00,46.0,33.0,29.87,SW,226,16.0,23.0,60,0.00,,,0.00,,2013-01-19 18:12:00,
2013-01-19 13:28:00,46.0,33.0,29.85,SSW,210,13.0,31.0,61,0.00,,,0.00,,2013-01-19 18:28:00,
2013-01-19 13:35:00,47.0,34.0,29.85,SW,228,11.0,22.0,60,0.00,,,0.00,,2013-01-19 18:35:00,
2013-01-19 13:45:00,47.0,34.0,29.85,SW,228,11.0,22.0,60,0.00,,,0.00,,2013-01-19 18:45:00,
2013-01-19 14:02:00,47.0,33.0,29.84,SW,227,16.0,27.0,59,0.00,,,0.00,,2013-01-19 19:02:00,
2013-01-19 14:09:00,48.0,34.0,29.83,WSW,239,13.0,27.0,58,0.00,,,0.00,,2013-01-19 19:09:00,
2013-01-19 14:20:00,48.0,34.0,29.83,WSW,239,13.0,27.0,58,0.00,,,0.00,,2013-01-19 19:20:00,
2013-01-19 14:30:00,48.0,34.0,29.83,SW,236,17.0,27.0,58,0.00,,,0.00,,2013-01-19 19:30:00,
2013-01-19 14:39:00,49.0,34.0,29.82,WSW,245,14.0,23.0,57,0.00,,,0.00,,2013-01-19 19:39:00,
2013-01-19 14:47:00,49.0,34.0,29.82,WSW,245,14.0,23.0,57,0.00,,,0.00,,2013-01-19 19:47:00,
2013-01-19 14:59:00,48.0,34.0,29.82,SW,229,15.0,27.0,58,0.00,,,0.00,,2013-01-19 19:59:00,
2013-01-19 15:10:00,48.0,34.0,29.81,SSW,205,15.0,29.0,58,0.00,,,0.00,,2013-01-19 20:10:00,
2013-01-19 15:26:00,49.0,35.0,29.80,West,259,17.0,26.0,58,0.00,,,0.00,,2013-01-19 20:26:00,
2013-01-19 15:38:00,48.0,34.0,29.80,SW,223,15.0,26.0,58,0.00,,,0.00,,2013-01-19 20:38:00,
2013-01-19 15:49:00,48.0,34.0,29.80,SW,223,15.0,26.0,58,0.00,,,0.00,,2013-01-19 20:49:00,
2013-01-19 15:59:00,48.0,35.0,29.79,SW,228,12.0,24.0,60,0.00,,,0.00,,2013-01-19 20:59:00,
2013-01-19 16:15:00,48.0,35.0,29.79,SW,214,10.0,16.0,60,0.00,,,0.00,,2013-01-19 21:15:00,
2013-01-19 16:45:00,47.0,34.0,29.79,SW,236,11.0,30.0,61,0.00,,,0.00,,2013-01-19 21:45:00,
2013-01-19 17:01:00,47.0,35.0,29.80,SW,236,7.0,18.0,62,0.00,,,0.00,,2013-01-19 22:01:00,
2013-01-19 17:15:00,47.0,35.0,29.78,SW,215,7.0,19.0,62,0.00,,,0.00,,2013-01-19 22:15:00,
2013-01-19 17:28:00,47.0,35.0,29.78,SSW,194,10.0,21.0,63,0.00,,,0.00,,2013-01-19 22:28:00,
2013-01-19 17:35:00,47.0,35.0,29.78,SW,221,13.0,20.0,64,0.00,,,0.00,,2013-01-19 22:35:00,
2013-01-19 17:48:00,47.0,35.0,29.78,SW,221,13.0,20.0,64,0.00,,,0.00,,2013-01-19 22:48:00,
2013-01-19 18:13:00,46.0,35.0,29.77,SSW,203,9.0,21.0,65,0.00,,,0.00,,2013-01-19 23:13:00,
2013-01-19 18:34:00,45.0,35.0,29.78,SW,215,9.0,16.0,67,0.00,,,0.00,,2013-01-19 23:34:00,
2013-01-19 18:46:00,45.0,35.0,29.78,SW,215,9.0,16.0,67,0.00,,,0.00,,2013-01-19 23:46:00,
2013-01-19 19:08:00,45.0,35.0,29.77,SW,225,10.0,16.0,68,0.00,,,0.00,,2013-01-20 00:08:00,
2013-01-19 19:15:00,45.0,35.0,29.78,WSW,244,9.0,15.0,69,0.00,,,0.00,,2013-01-20 00:15:00,
2013-01-19 19:25:00,44.0,35.0,29.78,SW,229,9.0,24.0,70,0.00,,,0.00,,2013-01-20 00:25:00,
2013-01-19 19:35:00,44.0,35.0,29.77,SSW,198,9.0,20.0,70,0.00,,,0.00,,2013-01-20 00:35:00,
2013-01-19 19:46:00,44.0,35.0,29.77,SSW,198,9.0,20.0,70,0.00,,,0.00,,2013-01-20 00:46:00,
2013-01-19 19:58:00,45.0,36.0,29.77,SW,228,10.0,20.0,70,0.00,,,0.00,,2013-01-20 00:58:00,
2013-01-19 20:04:00,44.0,35.0,29.78,SW,225,12.0,18.0,71,0.00,,,0.00,,2013-01-20 01:04:00,
2013-01-19 20:21:00,44.0,35.0,29.78,SW,225,12.0,18.0,71,0.00,,,0.00,,2013-01-20 01:21:00,
2013-01-19 20:27:00,44.0,36.0,29.77,SSW,211,10.0,19.0,72,0.00,,,0.00,,2013-01-20 01:27:00,
2013-01-19 20:37:00,44.0,36.0,29.77,WSW,245,11.0,18.0,72,0.00,,,0.00,,2013-01-20 01:37:00,
2013-01-19 20:49:00,44.0,36.0,29.77,WSW,245,11.0,18.0,72,0.00,,,0.00,,2013-01-20 01:49:00,
2013-01-19 21:04:00,44.0,36.0,29.76,WSW,238,11.0,18.0,73,0.00,,,0.00,,2013-01-20 02:04:00,
2013-01-19 21:15:00,45.0,37.0,29.76,WSW,254,13.0,27.0,73,0.00,,,0.00,,2013-01-20 02:15:00,
2013-01-19 21:27:00,45.0,37.0,29.75,SW,232,12.0,29.0,73,0.00,,,0.00,,2013-01-20 02:27:00,
2013-01-19 21:36:00,45.0,37.0,29.76,SW,234,14.0,24.0,73,0.00,,,0.00,,2013-01-20 02:36:00,
2013-01-19 21:45:00,45.0,37.0,29.76,SW,234,14.0,24.0,73,0.00,,,0.00,,2013-01-20 02:45:00,
2013-01-19 21:59:00,44.0,37.0,29.75,SW,227,14.0,26.0,75,0.00,,,0.00,,2013-01-20 02:59:00,
2013-01-19 22:08:00,44.0,37.0,29.75,WSW,237,11.0,27.0,75,0.00,,,0.00,,2013-01-20 03:08:00,
2013-01-19 22:15:00,44.0,37.0,29.75,WSW,237,11.0,27.0,75,0.00,,,0.00,,2013-01-20 03:15:00,
2013-01-19 22:25:00,44.0,37.0,29.75,SW,225,10.0,23.0,75,0.00,,,0.00,,2013-01-20 03:25:00,
2013-01-19 22:38:00,44.0,36.0,29.75,West,269,11.0,25.0,74,0.00,,,0.00,,2013-01-20 03:38:00,
2013-01-19 22:45:00,44.0,36.0,29.75,West,269,11.0,25.0,74,0.00,,,0.00,,2013-01-20 03:45:00,
2013-01-19 22:58:00,44.0,36.0,29.75,WSW,244,13.0,26.0,73,0.00,,,0.00,,2013-01-20 03:58:00,
2013-01-19 23:05:00,43.0,35.0,29.75,SW,231,9.0,22.0,74,0.00,,,0.00,,2013-01-20 04:05:00,
2013-01-19 23:15:00,43.0,35.0,29.75,SW,231,9.0,22.0,74,0.00,,,0.00,,2013-01-20 04:15:00,
2013-01-19 23:27:00,43.0,35.0,29.75,SSW,210,13.0,21.0,74,0.00,,,0.00,,2013-01-20 04:27:00,
2013-01-19 23:36:00,43.0,35.0,29.76,West,263,15.0,27.0,74,0.00,,,0.00,,2013-01-20 04:36:00,
2013-01-19 23:45:00,43.0,35.0,29.76,West,263,15.0,27.0,74,0.00,,,0.00,,2013-01-20 04:45:00,
2013-01-19 23:58:00,42.0,34.0,29.76,WSW,255,14.0,30.0,74,0.00,,,0.00,,2013-01-20 04:58:00,